Regional Weather Roundup
Issued by NWS

Home | Current Version | Previous Version | Graphics & Text | Print | Product List | Glossary On
Versions: 1 2 3 4 5 6 7 8 9 10 11 12 13 14 15 16 17 18 19 20 21 22 23 24 25 26 27 28 29 30 31 32 33 34 35 36 37 38 39 40 41 42 43 44 45 46 47 48 49 50
859
ASUS44 KLIX 180110
RWRLA
LOUISIANA WEATHER ROUNDUP
NATIONAL WEATHER SERVICE NEW ORLEANS LA
700 PM CST WED DEC 17 2014

NOTE: "FAIR" INDICATES FEW OR NO CLOUDS BELOW 12,000 FEET WITH NO
      SIGNIFICANT WEATHER AND/OR OBSTRUCTIONS TO VISIBILITY.
      SKY/WX - SKY CONDITION AND SIGNIFICANT WEATHER.
      TMP - AIR TEMPERATURE.    DP   - DEWPOINT TEMPERATURE.
      RH  - RELATIVE HUMIDITY.  PRES - PRESSURE.
      HX  - HEAT INDEX.         WCI  - WIND CHILL INDEX.

*  THESE STATIONS ARE NOT NWS OR FAA STATIONS AND ARE NOT UNDER
   NWS QUALITY CONTROL.

LAZ040-048-061>063-065-066-069-180200-
SOUTHEAST LOUISIANA

CITY           SKY/WX    TMP DP  RH WIND       PRES   REMARKS
N.O. AUDUBON     N/A     56  41  58 MISG        N/A
N.O. INTL ARPT MOCLDY    51  40  65 CALM      30.19S
N.O. LAKEFRONT PTCLDY    54  42  64 SE5       30.20R
N.O. DOWNTOWN* FAIR      55  37  50 SE5       30.20S
SLIDELL        CLEAR     45  42  89 CALM      30.19R
BATON ROUGE    PTCLDY    49  41  74 E3        30.19S
BOOTHVILLE     PTCLDY    54  49  83 E3        30.21S
BELLE CHASSE   MOCLDY    49  41  74 CALM      30.19R
BOGALUSA*        N/A     45  42  88 CALM      30.21S
GALLIANO*      PTCLDY    53  47  80 MISG      30.20S
NEW ROADS*     FAIR      48  40  72 CALM      30.19R
GONZALES*      FAIR      49  42  77 CALM      30.20R
HAMMOND*       NOT AVBL
HOUMA*         PTCLDY    51  44  77 SE3       30.19R
PORT FOURCHON* CLEAR     57  50  77 E6        30.23R

$$

LAZ041-044-053-054-180200-
SOUTHWEST LOUISIANA

CITY           SKY/WX    TMP DP  RH WIND       PRES   REMARKS
LAKE CHARLES   PTCLDY    53  43  68 E8        30.15F
LAFAYETTE      CLOUDY    54  40  59 CALM      30.18R
PATTERSON      MOCLDY    52  45  76 N3        30.20R
SALT POINT       N/A     55  46  71 CALM      30.17R
NEW IBERIA     MOCLDY    55  41  59 E5        30.19R HAZE
CHENAULT AIRPK PTCLDY    52  45  76 E3        30.16S

$$

LAZ027-028-180200-
CENTRAL LOUISIANA

CITY           SKY/WX    TMP DP  RH WIND       PRES   REMARKS
FORT POLK      CLOUDY    50  45  81 NE2       30.16S
ALEXANDRIA INT PTCLDY    48  40  73 NE3       30.18R
ALEXANDRIA     PTCLDY    48  41  76 CALM      30.18S

$$

LAZ001-002-180200-
NORTHWEST LOUISIANA

CITY           SKY/WX    TMP DP  RH WIND       PRES   REMARKS
SHREVEPORT     CLOUDY    47  38  71 E6        30.15F
BARKSDALE AFB  NOT AVBL
DTN SHREVEPORT CLOUDY    46  36  68 E6        30.16F

$$

LAZ014-016-180200-
NORTHEAST LOUISIANA

CITY           SKY/WX    TMP DP  RH WIND       PRES   REMARKS
MONROE         CLOUDY    48  39  71 NE8       30.22R
TALLULAH       CLOUDY    48  39  71 N5        30.22R

$$




USA.gov is the U.S. government's official web portal to all federal, state and local government web resources and services.